STARLINK-11601, 63110

Orbit data source: Space-Track

STARLINK-11601, 63110 is a payload satellite owned by SpaceX/Seattle (US) in LEO that was launched on Thu, 27 Feb 2025 UTC via an FALCON 9 launch vehicle from the Air Force Eastern Test Range (AFETR). Payload-class satellites include a variety of spacecraft equipped with specific instruments for various scientific and technological missions. These include communications satellites like Starlink; space stations such as the ISS; scientific satellites like the Hubble; Earth observation satellites from companies like Planet Labs, Umbra, and HawkEye 360; GPS; miniature CubeSats for education and research; and military/defense satellites.

Loading next visibility...
Identifier
63110, 2025-039G
Orbit
LEO
Country
Flag of USUS
Related business
Manufacturer
SpaceX/Seattle
Mission
Operational Commercial Communications
Bus & Motor
STARLINK V2MD, Unknown motor
Mass
960 kg wet, ~910 kg dry
Launch date (UTC)
2025-02-27 (7 months ago)
Launch vehicle
FALCON 9
Launch site
Air Force Eastern Test Range (AFETR)
Object type
Payload
Rocket body
Debris
Shape & HBR
Box + 2 Pan, 14.5 m
Radar Cross Section
36.964 m², Large (>1 m²)

Expand to show TLE details & history
Last TLE update: 2 days ago

TLE from 2 days ago
0 STARLINK-11601
1 63110U 25039G   25260.22262440  .00223233  00000-0  16934-2 0  9997
2 63110  42.9994 202.4416 0002140 263.9297  96.1327 15.70888107 32338
Epoch: 2025-09-17T05:20Z
TLE epoch observation values (Epoch: 2025-09-17T05:20:34.748Z)
Latitude
0.00001°
Longitude
125.89516°
Altitude
356.283 km
Speed
7.697 km/s
True Right ascension
13h 29m 45s
True Declination
0° 00' 00"
Sunlit
Object was in daylight at epoch
Visualization orbit readout
Latitude
Unknown
Longitude
Unknown
Altitude
Unknown
Speed
Unknown
Apparent Right ascension
Unknown
Apparent Declination
Unknown
Sunlit
N/A
Visualization observer readout
Local Sidereal Time
13:51:37
Azimuth
Unknown
Elevation
Unknown
Doppler factor
Unknown
Orbital elements
Apogee altitude
359.781 km
Perigee altitude
356.898 km
Semi-major axis
6,736.476 km
Eccentricity
0.00021
Inclination
42.9994°
RAAN
202.4416°
Arg. of periapsis
263.9297°
True anomaly
96.15708°
Mean anomaly
96.1327°
Eccentric anomaly
96.14489°
Mean motion
3.92549 °/min
Orbital period
91.71 mins
BSTAR
0.0016934
Loading maneuver chart data...
Computing Atmospheric mass density...
Loading historical data...
Loading historical data...
Loading historical data...
Loading historical data...
Loading historical data...
Loading historical data...
Loading historical data...

Documentation

Showing up to 5 results
|